Regional Weather Roundup
Issued by NWS Goodland, KS

Home | Current Version | Previous Version | Text Only | Print | Product List | Glossary On
Versions: 1 2 3 4 5 6 7 8 9 10 11 12 13 14 15 16 17 18 19 20 21 22 23 24 25 26 27 28 29 30 31 32 33 34 35 36 37 38 39 40 41 42 43 44 45 46 47 48 49 50
318
ASUS43 KGLD 230408
RWRGLD

GOODLAND FORECAST AREA HOURLY WEATHER ROUNDUP
NATIONAL WEATHER SERVICE GOODLAND KS
900 PM MST THU FEB 22 2018

...OFFICIAL OBSERVATIONS...

CITY           SKY/WX    TMP DP  RH WIND       PRES   REMARKS
GOODLAND KS    CLEAR     14  12  92 SE3       30.07R
HILL CITY KS   CLOUDY    26  25  96 CALM      30.16R
IMPERIAL NEB   CLOUDY    21  18  88 CALM      30.10R
MCCOOK NEB     CLOUDY    23  22  96 CALM      30.14R
AKRON CO       CLOUDY    21  18  88 N5        30.03S
BURLINGTON CO  CLEAR     14  12  92 E6        30.05R
LIMON CO       CLOUDY    22  20  92 N13       30.01S FOG     WCI  10
$$

...UNOFFICIAL OBSERVATIONS...

CITY           SKY/WX    TMP DP  RH WIND       PRES   REMARKS
COLBY KS       PTCLDY    19  19 100 SE6       30.12R FOG
NORTON KS      CLOUDY    25  21  86 CALM      30.14
SHARON SPRINGS   N/A     23  20  89 NE9         N/A
KIT CARSON CO    N/A     21  17  83 MISG        N/A
YUMA CO        MOCLDY    21  18  86 N5        30.06S
$$




USA.gov is the U.S. government's official web portal to all federal, state and local government web resources and services.